| time (UTC) | temp F | wind direction | speed knots | gust knots | rain 1hr in | rain 24hr in | rain mn in | humidity % | barometer mb |
| 20260505193101 | 85 | 138 | 2.6 | 7.8 | 0.00 | 0.00 | 0.00 | 38 | 1014.3 |
| 20260505191608 | 83 | 227 | 5.2 | 13.9 | 0.00 | 0.00 | 0.00 | 38 | 1014.6 |
| 20260505190104 | 84 | 223 | 5.2 | 13.0 | 0.00 | 0.00 | 0.00 | 37 | 1014.8 |
| 20260505184603 | 84 | 146 | 4.3 | 16.5 | 0.00 | 0.00 | 0.00 | 36 | 1014.8 |
| 20260505183131 | 83 | 235 | 3.5 | 13.9 | 0.00 | 0.00 | 0.00 | 38 | 1014.9 |
| 20260505181657 | 83 | 223 | 5.2 | 11.3 | 0.00 | 0.00 | 0.00 | 37 | 1015.0 |
| 20260505180056 | 84 | 225 | 1.7 | 10.4 | 0.00 | 0.00 | 0.00 | 39 | 1015.0 |
| 20260505174553 | 83 | 103 | 4.3 | 10.4 | 0.00 | 0.00 | 0.00 | 38 | 1015.0 |
| 20260505173054 | 82 | 256 | 4.3 | 16.5 | 0.00 | 0.00 | 0.00 | 41 | 1015.1 |
| 20260505171557 | 82 | 171 | 3.5 | 9.6 | 0.00 | 0.00 | 0.00 | 42 | 1015.3 |
| 20260505170045 | 81 | 228 | 5.2 | 12.2 | 0.00 | 0.00 | 0.00 | 42 | 1015.6 |
| 20260505164545 | 80 | 203 | 5.2 | 13.0 | 0.00 | 0.00 | 0.00 | 45 | 1015.6 |
| 20260505163044 | 80 | 192 | 4.3 | 9.6 | 0.00 | 0.00 | 0.00 | 45 | 1015.7 |
| 20260505161543 | 78 | 286 | 5.2 | 13.0 | 0.00 | 0.00 | 0.00 | 47 | 1015.8 |
| 20260505153034 | 78 | 186 | 3.5 | 8.7 | 0.00 | 0.00 | 0.00 | 49 | 1015.9 |
| 20260505151535 | 76 | 240 | 3.5 | 10.4 | 0.00 | 0.00 | 0.00 | 52 | 1016.0 |
| 20260505124600 | 66 | 244 | 2.6 | 12.2 | 0.00 | 0.00 | 0.00 | 66 | 1016.6 |
| 20260505123058 | 65 | 269 | 3.5 | 9.6 | 0.00 | 0.00 | 0.00 | 68 | 1016.6 |
| 20260505121555 | 63 | 235 | 3.5 | 9.6 | 0.00 | 0.00 | 0.00 | 69 | 1016.5 |
| 20260505120110 | 62 | 250 | 1.7 | 7.0 | 0.00 | 0.00 | 0.00 | 71 | 1016.5 |
| 20260505114553 | 61 | 214 | 0.0 | 7.8 | 0.00 | 0.00 | 0.00 | 74 | 1016.4 |
| 20260505113053 | 60 | 183 | 2.6 | 5.2 | 0.00 | 0.00 | 0.00 | 74 | 1016.4 |
| 20260505111551 | 60 | 205 | 0.9 | 4.3 | 0.00 | 0.00 | 0.00 | 75 | 1016.3 |
| 20260505101543 | 60 | 288 | 1.7 | 6.1 | 0.00 | 0.00 | 0.00 | 73 | 1015.6 |
| 20260505100042 | 60 | 234 | 3.5 | 7.8 | 0.00 | 0.00 | 0.00 | 72 | 1015.3 |
| 20260505094538 | 60 | 251 | 2.6 | 7.0 | 0.00 | 0.00 | 0.00 | 72 | 1015.2 |
| 20260505093041 | 61 | 234 | 1.7 | 6.1 | 0.00 | 0.00 | 0.00 | 72 | 1015.2 |
| 20260505091536 | 61 | 261 | 1.7 | 7.8 | 0.00 | 0.00 | 0.00 | 71 | 1015.1 |
| 20260505090042 | 61 | 243 | 1.7 | 5.2 | 0.00 | 0.00 | 0.00 | 71 | 1015.0 |
| 20260505084533 | 61 | 207 | 0.9 | 4.3 | 0.00 | 0.00 | 0.00 | 70 | 1015.0 |
| 20260505083030 | 62 | 177 | 1.7 | 7.0 | 0.00 | 0.00 | 0.00 | 69 | 1014.9 |
| 20260505081535 | 62 | 253 | 2.6 | 7.0 | 0.00 | 0.00 | 0.00 | 69 | 1014.8 |
| 20260505080037 | 62 | 246 | 2.6 | 8.7 | 0.00 | 0.00 | 0.00 | 69 | 1014.8 |
| 20260505074503 | 63 | 244 | 1.7 | 7.8 | 0.00 | 0.00 | 0.00 | 68 | 1014.8 |
| 20260505073002 | 63 | 231 | 1.7 | 5.2 | 0.00 | 0.00 | 0.00 | 68 | 1014.8 |
| 20260505071501 | 63 | 236 | 2.6 | 8.7 | 0.00 | 0.00 | 0.00 | 68 | 1014.6 |
| 20260505070058 | 63 | 244 | 1.7 | 5.2 | 0.00 | 0.00 | 0.00 | 67 | 1014.5 |
| 20260505064556 | 63 | 229 | 0.9 | 8.7 | 0.00 | 0.00 | 0.00 | 66 | 1014.6 |
| 20260505063055 | 64 | 176 | 2.6 | 6.1 | 0.00 | 0.00 | 0.00 | 65 | 1014.5 |
| 20260505061557 | 64 | 250 | 1.7 | 8.7 | 0.00 | 0.00 | 0.00 | 65 | 1014.6 |
| 20260505060052 | 64 | 250 | 2.6 | 10.4 | 0.00 | 0.00 | 0.00 | 64 | 1014.6 |
| 20260505054609 | 64 | 215 | 4.3 | 8.7 | 0.00 | 0.00 | 0.00 | 64 | 1014.7 |
| 20260505053100 | 64 | 196 | 2.6 | 7.8 | 0.00 | 0.00 | 0.00 | 65 | 1014.9 |
| 20260505051546 | 65 | 250 | 1.7 | 9.6 | 0.00 | 0.00 | 0.00 | 65 | 1014.8 |
| 20260505041514 | 65 | 250 | 2.6 | 8.7 | 0.00 | 0.00 | 0.00 | 64 | 1014.8 |
| 20260505040009 | 66 | 190 | 1.7 | 8.7 | 0.00 | 0.00 | 0.00 | 64 | 1014.8 |
| 20260505034510 | 66 | 45 | 2.6 | 9.6 | 0.00 | 0.00 | 0.00 | 63 | 1014.6 |
| 20260505033008 | 66 | 290 | 2.6 | 9.6 | 0.00 | 0.00 | 0.00 | 64 | 1014.5 |
| 20260505031542 | 66 | 222 | 1.7 | 9.6 | 0.00 | 0.00 | 0.00 | 63 | 1014.6 |
| 20260505030147 | 66 | 248 | 1.7 | 11.3 | 0.00 | 0.00 | 0.00 | 64 | 1014.5 |
| 20260505023029 | 67 | 179 | 1.7 | 8.7 | 0.00 | 0.00 | 0.00 | 64 | 1014.6 |
| 20260505021536 | 67 | 132 | 3.5 | 9.6 | 0.00 | 0.00 | 0.00 | 64 | 1014.5 |
| 20260505020144 | 68 | 317 | 2.6 | 10.4 | 0.00 | 0.00 | 0.00 | 64 | 1014.4 |
| 20260505014611 | 68 | 136 | 4.3 | 16.5 | 0.00 | 0.00 | 0.00 | 63 | 1014.4 |
| 20260505013113 | 68 | 217 | 0.9 | 10.4 | 0.00 | 0.00 | 0.00 | 63 | 1014.2 |
| 20260505011535 | 69 | 250 | 2.6 | 7.8 | 0.00 | 0.00 | 0.00 | 62 | 1014.1 |
| 20260505010025 | 69 | 171 | 2.6 | 10.4 | 0.00 | 0.00 | 0.00 | 62 | 1013.8 |
| 20260505003023 | 70 | 156 | 2.6 | 11.3 | 0.00 | 0.00 | 0.00 | 59 | 1013.4 |
| 20260505001519 | 71 | 217 | 3.5 | 10.4 | 0.00 | 0.00 | 0.00 | 59 | 1013.3 |
| 20260505000118 | 71 | 196 | 0.9 | 6.1 | 0.00 | 0.00 | 0.00 | 56 | 1013.1 |
| 20260504234609 | 73 | 192 | 3.5 | 10.4 | 0.00 | 0.00 | 0.00 | 53 | 1013.0 |
| 20260504233031 | 75 | 154 | 3.5 | 7.8 | 0.00 | 0.00 | 0.00 | 48 | 1012.7 |
| 20260504230009 | 76 | 169 | 0.9 | 8.7 | 0.00 | 0.00 | 0.00 | 39 | 1012.4 |
| 20260504223007 | 78 | 268 | 3.5 | 8.7 | 0.00 | 0.00 | 0.00 | 36 | 1012.3 |
| 20260504214542 | 79 | 244 | 3.5 | 9.6 | 0.00 | 0.00 | 0.00 | 36 | 1012.3 |
| 20260504211635 | 80 | 229 | 2.6 | 10.4 | 0.00 | 0.00 | 0.00 | 36 | 1012.6 |
| 20260504210145 | 80 | 163 | 2.6 | 16.5 | 0.00 | 0.00 | 0.00 | 34 | 1012.6 |
| 20260504204555 | 80 | 194 | 4.3 | 10.4 | 0.00 | 0.00 | 0.00 | 35 | 1012.7 |
| 20260504203028 | 80 | 240 | 6.1 | 12.2 | 0.00 | 0.00 | 0.00 | 35 | 1012.7 |